Preview of NWS' New Version of Forecast
This preview is not operational and should not be used for support decisions.

Regional Weather Roundup (RWR)

Issued by National Weather Service (NWS)

                            
000
ASCA42 TJSJ 190610
RWRPR 
PUERTO RICO/U.S. VIRGIN ISLANDS HOURLY WEATHER ROUNDUP
NATIONAL WEATHER SERVICE SAN JUAN PR
200 AM AST TUE MAR 19 2019

PRZ001>002-007>008-010-190700-
PUERTO RICO
  
CITY           SKY/WX    TMP DP  RH WIND       PRES   REMARKS
SAN JUAN LMM   PTCLDY    73  64  73 CALM      30.02F                  
$$

VIZ001>002-190700-
U.S. VIRGIN ISLANDS
  
CITY           SKY/WX    TMP DP  RH WIND       PRES   REMARKS
CHARLOTTE AMA  CLEAR     73  64  73 E6        30.01F                  
CHRISTIANSTED  PTCLDY    73  63  68 NE7       30.01F                  
$$

HOURLY WEATHER ROUNDUP FOR THE NEWS MEDIA
  
CITY           SKY/WX    TMP DP  RH WIND       PRES   REMARKS
ORLANDO        LGT RAIN  58  50  75 N6        30.15F                  
NEW YORK       FAIR      35  31  85 W6        30.36R WCI  30          
NEWARK         FAIR      35  18  49 CALM      30.35R                  
CHICAGO        MOCLDY    34  25  69 SW8       30.36S WCI  27          
HARTFORD       FAIR      23  18  81 CALM      30.31S                  
BOSTON         FAIR      36   9  32 NW6       30.31R WCI  31          
DALLAS         MOCLDY    57  37  47 CALM      30.25F                  
PHILADELPHIA   FAIR      36  27  69 W5        30.37R WCI  32          
LOS ANGELES    PTCLDY    58  54  86 E6        29.99S                  
WASHINGTON DC  FAIR      30  18  60 NW5       30.40R WCI  25